Regional Weather Roundup
Issued by NWS

Home | Current Version | Previous Version | Graphics & Text | Print | Product List | Glossary On
Versions: 1 2 3 4 5 6 7 8 9 10 11 12 13 14 15 16 17 18 19 20 21 22 23 24 25 26 27 28 29 30 31 32 33 34 35 36 37 38 39 40 41 42 43 44 45 46 47 48 49 50
000
ASUS43 KIND 010159
RWRIN

WEATHER ROUNDUP FOR INDIANA
NATIONAL WEATHER SERVICE INDIANAPOLIS IN
1000 PM EDT TUE JUN 30 2015

NOTE: "FAIR" INDICATES FEW OR NO CLOUDS BELOW 12,000 FEET WITH NO
SIGNIFICANT WEATHER AND/OR OBSTRUCTIONS TO VISIBILITY.

* - STATION DOES NOT REPORT WEATHER SUCH AS PRECIPITATION OR FOG.

+ - STATION NOT QUALITY CONTROLLED BY THE NATIONAL WEATHER SERVICE.
    USE DATA WITH CAUTION...ESPECIALLY DEWPOINT AND RELATIVE
    HUMIDITY OBSERVATIONS.

INZ001>003-010>013-019-020-010300-
NORTHWEST INDIANA

CITY           SKY/WX    TMP DP  RH WIND       PRES   REMARKS
GARY /AIRPORT/ CLOUDY   N/A N/A N/A N8        29.90R
RENSSELAER +   CLEAR     66  63  88 N6        29.87R

$$

LMZ046-743>745-010300-
SOUTHERN LAKE MICHIGAN

STATION/POSITION TIME  TEMP    WIND        PRES    WAVE
                       AIR SEA DIR/SP/G            HT
                 (UTC) (F)     (DEG/KT/KT) (MB)    (FT)
BURNS HARBOR     0100   60      10/ 10/ 12 1012.5R
MICHIGAN CITY    0100   59      10/ 10/ 12   N/A
5NW MICH CITY    0100   60 65   30/ 10/ 12   N/A     2

$$

INZ004-005-014>016-021>024-010300-
NORTH CENTRAL INDIANA

CITY           SKY/WX    TMP DP  RH WIND       PRES   REMARKS
GOSHEN         CLEAR     64  58  80 NW10      29.85R
PERU/GRISSOM   PTCLDY    68  61  77 N3        29.85R
SOUTH BEND     CLEAR     62  58  86 NW7       29.87S

$$

INZ006>009-017-018-025>027-010300-
NORTHEAST INDIANA

CITY           SKY/WX    TMP DP  RH WIND       PRES   REMARKS
ANGOLA *+      MOCLDY    66  59  77 NW10      29.83R
FORT WAYNE     PTCLDY    68  59  73 W8        29.84R

$$

INZ028-029-035-036-043>045-051>053-010300-
WEST CENTRAL INDIANA

CITY           SKY/WX    TMP DP  RH WIND       PRES   REMARKS
CRAWFORDSVL +  CLEAR     65  62  91 NW3       29.86R
GREENCASTLE +  PTCLDY    70  63  78 CALM      29.86R
LAFAYETTE      PTCLDY    69  62  78 NE7       29.86R
TERRE HAUTE    PTCLDY    71  66  84 W3        29.86R

$$

INZ030>032-037>040-046>048-054>057-064-065-010300-
CENTRAL INDIANA

CITY           SKY/WX    TMP DP  RH WIND       PRES   REMARKS
GREENWOOD *+   PTCLDY    70  59  68 CALM      29.87R
INDIANAPOLIS   PTCLDY    73  62  68 NW6       29.84R
-EAGLE CREEK   CLEAR     73  62  68 CALM      29.85R
KOKOMO *+      PTCLDY    70  61  73 N6        29.85R
MT COMFORT *+  CLEAR     68  66  94 CALM      29.86R
SHELBYVILLE    MOCLDY    72  62  71 SW9       29.86R

$$

INZ033-034-041-042-049-050-058-059-010300-
EAST CENTRAL INDIANA

CITY           SKY/WX    TMP DP  RH WIND       PRES   REMARKS
MUNCIE         PTCLDY    71  62  73 N10       29.86R

$$

INZ060-061-067>069-081>083-085>088-010300-
SOUTHWEST INDIANA

CITY           SKY/WX    TMP DP  RH WIND       PRES   REMARKS
EVANSVILLE     PTCLDY    76  68  76 W5        29.88R
HUNTINGBURG *+ CLEAR     73  66  78 SW6       29.88R

$$

INZ062-063-066-070>080-084-089>092-010300-
SOUTH CENTRAL AND SOUTHEAST INDIANA

CITY           SKY/WX    TMP DP  RH WIND       PRES   REMARKS
BLOOMINGTON    PTCLDY    67  66  97 CALM      29.86R
MADISON *+     MOCLDY    66  63  88 CALM      29.90F
SEYMOUR +      MOCLDY    70  68  94 S8        29.87R

$$




USA.gov is the U.S. government's official web portal to all federal, state and local government web resources and services.